{"data":{"norad_id":51627,"intl_designator":"2022-012F","name":"ONEWEB-0423","alt_names":[],"object_type":"PAYLOAD","status":"ACTIVE","operator":null,"country":"UK","launch_date":"2022-02-10","launch_site_code":"FRGUI","launch_vehicle":null,"mission":null,"orbit_class":"UNKNOWN","rcs_meters":null,"size_class":null,"mass_kg":null,"dimensions":null,"purposes":["comms"],"wikipedia_slug":null,"has_3d_model":false,"image_url":null,"decayed_at":null,"tle_current":{"epoch":"2026-05-25T03:15:56.142144Z","epoch_age_seconds":63046,"freshness":"FRESH","line1":"1 51627U 22012F   26145.13606646 -.00000011  00000+0 -61798-4 0  9996","line2":"2 51627  87.9155  10.4475 0001942  84.2596 275.8757 13.17648788210668","mean_motion":13.17648788,"eccentricity":0.0001942,"inclination_deg":87.9155,"raan_deg":10.4475,"arg_perigee_deg":84.2596,"mean_anomaly_deg":275.8757,"bstar":-6.1798e-5,"rev_number":21066,"period_min":109.28557086792,"perigee_km":1192.2436185555,"apogee_km":1195.1845255119,"semimajor_km":7571.8510720337,"source":"CELESTRAK","updated_at":"2026-05-25T13:38:22.576854Z"}}}